�������l�o���
Date,Time,MP-1(��Sv/h),MP-2(��Sv/h),MP-3(��Sv/h),MP-4(��Sv/h),MP-5(��Sv/h),MP-6(��Sv/h),MP-7(��Sv/h),MP-8(��Sv/h),����,����(m/s),���J
2020/03/10,00:00,0.682,0.970,0.655,1.192,0.851,0.396,0.688,0.656,�k�k��,1.7,�L
2020/03/10,00:10,0.679,0.963,0.654,1.189,0.848,0.394,0.686,0.655,�k�k��,2.0,�L
2020/03/10,00:20,0.679,0.962,0.655,1.189,0.847,0.394,0.688,0.656,�k,1.7,�L
2020/03/10,00:30,0.678,0.963,0.654,1.188,0.846,0.394,0.687,0.657,�k�k��,1.7,�L
2020/03/10,00:40,0.679,0.962,0.652,1.185,0.846,0.395,0.688,0.655,�k�k��,1.5,�L
2020/03/10,00:50,0.681,0.962,0.651,1.184,0.846,0.396,0.686,0.655,�k��,2.0,�L
2020/03/10,01:00,0.680,0.963,0.653,1.185,0.847,0.394,0.687,0.656,�k�k��,1.7,��
2020/03/10,01:10,0.678,0.961,0.652,1.184,0.846,0.393,0.686,0.654,�k�k��,2.0,�L
2020/03/10,01:20,0.677,0.958,0.651,1.184,0.844,0.395,0.687,0.656,�k,1.9,�L
2020/03/10,01:30,0.680,0.958,0.651,1.183,0.844,0.395,0.687,0.654,�k�k��,1.2,�L
2020/03/10,01:40,0.679,0.961,0.653,1.184,0.846,0.395,0.686,0.654,�k��,2.3,��
2020/03/10,01:50,0.680,0.958,0.653,1.181,0.846,0.395,0.687,0.655,�k�k��,2.3,��
2020/03/10,02:00,0.678,0.961,0.653,1.182,0.847,0.395,0.686,0.653,�k�k��,3.4,��
2020/03/10,02:10,0.678,0.960,0.652,1.182,0.845,0.395,0.687,0.655,�k�k��,2.9,�L
2020/03/10,02:20,0.679,0.958,0.653,1.181,0.843,0.393,0.687,0.654,�k�k��,2.3,�L
2020/03/10,02:30,0.679,0.962,0.652,1.183,0.843,0.394,0.687,0.653,�k��,1.7,�L
2020/03/10,02:40,0.677,0.958,0.653,1.183,0.846,0.394,0.688,0.655,�k�k��,2.3,��
2020/03/10,02:50,0.678,0.960,0.651,1.183,0.843,0.393,0.688,0.654,�k,2.0,��
2020/03/10,03:00,0.678,0.961,0.652,1.182,0.844,0.395,0.687,0.653,�k,1.2,��
2020/03/10,03:10,0.677,0.961,0.653,1.182,0.846,0.393,0.687,0.655,�k�k��,3.5,�L
2020/03/10,03:20,0.678,0.959,0.652,1.181,0.843,0.394,0.687,0.655,�k,2.9,��
2020/03/10,03:30,0.678,0.960,0.651,1.183,0.846,0.394,0.687,0.653,�k,4.0,�L
2020/03/10,03:40,0.677,0.958,0.652,1.182,0.846,0.394,0.687,0.654,�k,3.6,�L
2020/03/10,03:50,0.678,0.961,0.652,1.183,0.845,0.393,0.687,0.655,�k,3.6,�L
2020/03/10,04:00,0.677,0.960,0.651,1.183,0.846,0.394,0.688,0.656,�k,4.2,��
2020/03/10,04:10,0.680,0.960,0.650,1.183,0.847,0.394,0.687,0.654,�k�k��,4.8,��
2020/03/10,04:20,0.678,0.960,0.651,1.182,0.847,0.395,0.687,0.656,�k,4.3,��
2020/03/10,04:30,0.677,0.962,0.651,1.184,0.845,0.392,0.689,0.656,�k�k��,3.9,��
2020/03/10,04:40,0.676,0.961,0.651,1.180,0.847,0.392,0.685,0.654,�k�k��,4.0,��
2020/03/10,04:50,0.679,0.958,0.654,1.183,0.846,0.395,0.687,0.654,�k�k��,4.3,��
2020/03/10,05:00,0.679,0.962,0.652,1.182,0.844,0.393,0.688,0.655,�k,3.9,��
2020/03/10,05:10,0.678,0.961,0.652,1.180,0.846,0.393,0.688,0.655,�k,4.2,��
2020/03/10,05:20,0.678,0.959,0.653,1.182,0.845,0.396,0.687,0.655,�k,4.1,�L
2020/03/10,05:30,0.677,0.962,0.651,1.181,0.849,0.394,0.686,0.655,�k,3.3,�L
2020/03/10,05:40,0.679,0.961,0.651,1.181,0.846,0.395,0.686,0.655,�k,2.9,�L
2020/03/10,05:50,0.675,0.960,0.652,1.181,0.848,0.394,0.686,0.656,�k�k��,4.2,�L
2020/03/10,06:00,0.677,0.958,0.650,1.180,0.844,0.393,0.685,0.655,�k�k��,4.4,�L
2020/03/10,06:10,0.676,0.955,0.649,1.179,0.842,0.394,0.685,0.654,�k�k��,3.5,�L
2020/03/10,06:20,0.676,0.957,0.650,1.176,0.842,0.394,0.686,0.655,�k,3.1,�L
2020/03/10,06:30,0.676,0.957,0.650,1.176,0.841,0.393,0.686,0.652,�k,3.3,�L
2020/03/10,06:40,0.675,0.955,0.648,1.177,0.841,0.392,0.686,0.654,�k�k��,2.8,�L
2020/03/10,06:50,0.675,0.958,0.649,1.178,0.842,0.395,0.686,0.653,�k�k��,2.6,�L
2020/03/10,07:00,0.674,0.952,0.648,1.176,0.841,0.394,0.684,0.653,���k��,3.1,�L
2020/03/10,07:10,0.673,0.946,0.646,1.171,0.837,0.393,0.684,0.651,�k,1.7,�L
2020/03/10,07:20,0.670,0.944,0.647,1.167,0.837,0.392,0.683,0.650,�k,2.6,�L
2020/03/10,07:30,0.672,0.946,0.644,1.165,0.837,0.391,0.681,0.653,�k�k��,2.6,�L
2020/03/10,07:40,0.673,0.946,0.646,1.166,0.836,0.393,0.683,0.651,�k�k��,3.0,��
2020/03/10,07:50,0.671,0.948,0.647,1.169,0.837,0.392,0.684,0.652,�k��,2.9,��
2020/03/10,08:00,0.673,0.950,0.646,1.167,0.837,0.391,0.684,0.652,�k��,2.3,�L
2020/03/10,08:10,0.671,0.949,0.646,1.166,0.837,0.394,0.683,0.653,�k��,3.4,�L
2020/03/10,08:20,0.673,0.948,0.646,1.168,0.835,0.392,0.683,0.650,�k�k��,3.0,�L
2020/03/10,08:30,0.671,0.946,0.645,1.166,0.835,0.392,0.681,0.651,�k�k��,3.6,�L
2020/03/10,08:40,0.672,0.946,0.647,1.166,0.835,0.393,0.682,0.651,�k�k��,3.8,�L
2020/03/10,08:50,0.671,0.945,0.645,1.164,0.834,0.392,0.682,0.651,�k�k��,3.5,�L
2020/03/10,09:00,0.671,0.944,0.646,1.167,0.834,0.391,0.682,0.652,�k�k��,3.9,�L
2020/03/10,09:10,0.671,0.940,0.645,1.162,0.832,0.392,0.680,0.650,�k�k��,4.2,�L
2020/03/10,09:20,0.667,0.936,0.642,1.159,0.831,0.391,0.680,0.649,�k�k��,3.9,�L
2020/03/10,09:30,0.667,0.932,0.642,1.152,0.826,0.390,0.678,0.648,�k�k��,3.0,�L
2020/03/10,09:40,0.661,0.923,0.637,1.148,0.821,0.388,0.675,0.647,�k�k��,2.8,�L
2020/03/10,09:50,0.663,0.926,0.638,1.147,0.822,0.389,0.676,0.645,�k�k��,2.3,�L
2020/03/10,10:00,0.661,0.923,0.640,1.146,0.819,0.389,0.675,0.646,�k�k��,1.1,�L
2020/03/10,10:10,0.661,0.924,0.639,1.142,0.817,0.388,0.675,0.645,�k,1.1,�L
2020/03/10,10:20,0.662,0.922,0.636,1.143,0.817,0.388,0.674,0.644,-,CALM,�L
2020/03/10,10:30,0.660,0.923,0.639,1.142,0.816,0.389,0.674,0.643,-,CALM,�L
2020/03/10,10:40,0.661,0.918,0.637,1.138,0.812,0.388,0.673,0.642,��쓌,2.9,�L
2020/03/10,10:50,0.660,0.918,0.634,1.136,0.808,0.386,0.670,0.642,��쓌,2.8,�L
2020/03/10,11:00,0.656,0.915,0.636,1.133,0.807,0.388,0.671,0.640,��쓌,4.4,�L
2020/03/10,11:10,0.659,0.918,0.635,1.135,0.806,0.387,0.669,0.640,�쓌,4.8,�L
2020/03/10,11:20,0.658,0.913,0.632,1.130,0.799,0.385,0.666,0.637,-,CALM,�L
2020/03/10,11:30,0.658,0.913,0.632,1.132,0.804,0.388,0.669,0.641,�쓌,3.1,�L
2020/03/10,11:40,0.661,0.920,0.636,1.139,0.806,0.390,0.669,0.642,��쓌,2.0,�L
2020/03/10,11:50,0.659,0.918,0.635,1.134,0.800,0.387,0.667,0.638,���쓌,1.9,�L
2020/03/10,12:00,0.659,0.918,0.635,1.137,0.802,0.389,0.670,0.641,���쓌,0.9,�L
2020/03/10,12:10,0.663,0.923,0.637,1.141,0.804,0.390,0.669,0.642,��쓌,1.9,�L
2020/03/10,12:20,0.661,0.919,0.635,1.137,0.797,0.388,0.668,0.642,��쓌,1.2,�L
2020/03/10,12:30,0.655,0.916,0.633,1.133,0.798,0.388,0.667,0.640,��쓌,1.7,�L
2020/03/10,12:40,0.657,0.915,0.633,1.131,0.795,0.389,0.666,0.638,��쓌,2.0,�L
2020/03/10,12:50,0.656,0.912,0.628,1.125,0.788,0.386,0.665,0.640,��쓌,4.4,�L
2020/03/10,13:00,0.654,0.913,0.630,1.130,0.792,0.390,0.666,0.640,��쓌,5.7,�L
2020/03/10,13:10,0.658,0.914,0.632,1.131,0.793,0.389,0.667,0.638,��쓌,7.2,�L
2020/03/10,13:20,0.657,0.913,0.632,1.135,0.795,0.392,0.669,0.638,��쓌,7.7,�L
2020/03/10,13:30,0.660,0.918,0.636,1.138,0.798,0.391,0.668,0.639,��쓌,7.2,�L
2020/03/10,13:40,0.659,0.919,0.636,1.141,0.797,0.391,0.669,0.642,��쓌,7.4,�L
2020/03/10,13:50,0.663,0.920,0.635,1.141,0.798,0.393,0.669,0.641,��쓌,7.3,�L
2020/03/10,14:00,0.662,0.921,0.635,1.143,0.799,0.393,0.669,0.642,��쓌,7.6,�L
2020/03/10,14:10,0.662,0.921,0.636,1.140,0.795,0.392,0.670,0.642,��,6.7,�L
2020/03/10,14:20,0.659,0.916,0.633,1.134,0.791,0.390,0.669,0.641,��,7.3,�L
2020/03/10,14:30,0.656,0.915,0.633,1.130,0.791,0.392,0.668,0.641,��,8.6,�L
2020/03/10,14:40,0.657,0.910,0.632,1.131,0.790,0.391,0.666,0.642,��,9.1,�L
2020/03/10,14:50,0.657,0.915,0.633,1.135,0.792,0.391,0.669,0.640,��,9.3,�L
2020/03/10,15:00,0.663,0.922,0.635,1.136,0.793,0.393,0.670,0.641,��쓌,11.1,�L
2020/03/10,15:10,0.661,0.923,0.635,1.139,0.795,0.392,0.670,0.642,��,11.6,�L
2020/03/10,15:20,0.663,0.921,0.637,1.139,0.794,0.393,0.669,0.640,��,9.5,�L
2020/03/10,15:30,0.661,0.920,0.635,1.137,0.793,0.393,0.670,0.642,��,9.9,�L
2020/03/10,15:40,0.664,0.927,0.637,1.140,0.797,0.395,0.672,0.640,��,11.9,�L
2020/03/10,15:50,0.666,0.928,0.639,1.144,0.798,0.397,0.672,0.643,��,11.6,�L
2020/03/10,16:00,0.665,0.929,0.638,1.143,0.797,0.396,0.671,0.644,��,11.0,�L
2020/03/10,16:10,0.667,0.930,0.639,1.144,0.798,0.397,0.673,0.642,��,13.3,�L
2020/03/10,16:20,0.669,0.933,0.640,1.141,0.799,0.398,0.674,0.643,��,10.9,�L
2020/03/10,16:30,0.669,0.935,0.640,1.146,0.798,0.399,0.676,0.643,��,10.6,�L
2020/03/10,16:40,0.670,0.937,0.644,1.147,0.802,0.398,0.674,0.644,��,10.5,�L
2020/03/10,16:50,0.672,0.940,0.642,1.146,0.801,0.400,0.674,0.643,��,12.7,�L
2020/03/10,17:00,0.671,0.938,0.643,1.151,0.802,0.400,0.676,0.644,��,11.3,�L
2020/03/10,17:10,0.675,0.941,0.644,1.148,0.802,0.400,0.678,0.645,��,12.1,�L
2020/03/10,17:20,0.676,0.942,0.645,1.151,0.801,0.402,0.677,0.645,��,10.0,�L
2020/03/10,17:30,0.674,0.944,0.645,1.151,0.803,0.401,0.678,0.647,��,9.7,�L
2020/03/10,17:40,0.677,0.946,0.643,1.153,0.804,0.402,0.676,0.645,��,12.7,�L
2020/03/10,17:50,0.675,0.943,0.646,1.153,0.802,0.403,0.679,0.646,��,10.6,�L
2020/03/10,18:00,0.677,0.944,0.646,1.153,0.805,0.402,0.677,0.645,��쐼,9.5,�L
2020/03/10,18:10,0.676,0.942,0.646,1.156,0.804,0.403,0.677,0.645,��,10.5,�L
2020/03/10,18:20,0.677,0.945,0.645,1.156,0.806,0.402,0.678,0.646,��,9.2,�L
2020/03/10,18:30,0.678,0.948,0.648,1.156,0.807,0.403,0.680,0.646,��,11.0,�L
2020/03/10,18:40,0.678,0.949,0.646,1.157,0.806,0.403,0.680,0.646,��,9.8,�L
2020/03/10,18:50,0.674,0.943,0.645,1.156,0.805,0.402,0.679,0.644,��,10.3,�L
2020/03/10,19:00,0.671,0.938,0.644,1.150,0.803,0.402,0.679,0.644,��,11.3,�L
2020/03/10,19:10,0.672,0.941,0.646,1.150,0.803,0.402,0.676,0.644,��,11.8,�L
2020/03/10,19:20,0.674,0.940,0.645,1.151,0.802,0.401,0.676,0.644,��,10.5,�L
2020/03/10,19:30,0.673,0.940,0.646,1.151,0.803,0.402,0.679,0.645,��,13.8,�L
2020/03/10,19:40,0.676,0.943,0.644,1.153,0.804,0.401,0.676,0.645,��,10.7,�L
2020/03/10,19:50,0.674,0.944,0.644,1.153,0.805,0.401,0.679,0.646,��,10.9,�L
2020/03/10,20:00,0.674,0.945,0.645,1.150,0.805,0.401,0.678,0.647,��,10.7,�L
2020/03/10,20:10,0.671,0.945,0.644,1.152,0.805,0.400,0.679,0.646,��,9.4,�L
2020/03/10,20:20,0.673,0.947,0.643,1.154,0.806,0.400,0.679,0.647,��,7.9,�L
2020/03/10,20:30,0.675,0.946,0.643,1.153,0.807,0.400,0.680,0.648,��,7.5,�L
2020/03/10,20:40,0.673,0.945,0.644,1.156,0.806,0.399,0.680,0.647,��,8.8,�L
2020/03/10,20:50,0.672,0.945,0.643,1.153,0.807,0.399,0.681,0.648,��,8.4,�L
2020/03/10,21:00,0.672,0.945,0.643,1.154,0.807,0.399,0.678,0.647,��,10.7,�L
2020/03/10,21:10,0.670,0.942,0.642,1.156,0.804,0.399,0.676,0.647,��쓌,11.6,�L
2020/03/10,21:20,0.668,0.938,0.640,1.154,0.801,0.397,0.675,0.646,��쓌,12.8,�L
2020/03/10,21:30,0.665,0.938,0.637,1.150,0.800,0.398,0.677,0.644,��쓌,11.6,�L
2020/03/10,21:40,0.663,0.935,0.638,1.152,0.797,0.397,0.674,0.643,��쓌,10.7,�L
2020/03/10,21:50,0.662,0.935,0.637,1.152,0.799,0.395,0.677,0.644,��쓌,11.3,�L
2020/03/10,22:00,0.665,0.936,0.640,1.152,0.802,0.396,0.677,0.645,��쓌,10.5,�L
2020/03/10,22:10,0.668,0.938,0.639,1.150,0.800,0.396,0.676,0.645,��쓌,11.1,�L
2020/03/10,22:20,0.666,0.938,0.638,1.151,0.801,0.397,0.676,0.644,��쓌,12.7,�L
2020/03/10,22:30,0.667,0.941,0.641,1.153,0.801,0.397,0.677,0.645,��쓌,12.7,�L
2020/03/10,22:40,0.667,0.941,0.639,1.152,0.802,0.396,0.677,0.645,��쓌,12.0,��
2020/03/10,22:50,0.670,0.941,0.639,1.152,0.802,0.398,0.677,0.646,��쓌,10.5,��
2020/03/10,23:00,0.669,0.946,0.641,1.154,0.804,0.398,0.678,0.647,��,7.8,��
2020/03/10,23:10,0.668,0.943,0.638,1.153,0.806,0.397,0.678,0.648,��,5.2,��
2020/03/10,23:20,0.668,0.946,0.640,1.155,0.805,0.398,0.678,0.649,��,3.6,��
2020/03/10,23:30,0.671,0.945,0.638,1.157,0.807,0.398,0.679,0.647,��,6.6,��
2020/03/10,23:40,0.672,0.943,0.641,1.154,0.808,0.398,0.678,0.647,��,5.1,��
2020/03/10,23:50,0.672,0.945,0.642,1.154,0.807,0.397,0.680,0.648,��,6.6,��
